Weather History for Fort Meade, MD

Change the Weather History Date:

Saturday, May 26, 2012

  Actual Average (KBWI) Record (KBWI)
Temperature  
Mean Temperature 73 °F 66 °F  
Max Temperature 86 °F 77 °F 94 °F (1914)
Min Temperature 60 °F 55 °F 41 °F (1967)
Degree Days  
Heating Degree Days 0 3  
Month to date heating degree days 124  
Since 1 July heating degree days 4739  
Cooling Degree Days 8 4  
Month to date cooling degree days 50  
Year to date cooling degree days 64  
Growing Degree Days 23 (Base 50)    
Moisture  
Dew Point 65 °F    
Average Humidity 79    
Maximum Humidity 100    
Minimum Humidity 55    
Precipitation  
Precipitation 0.00 in 0.14 in 2.29 in (2009)
Month to date precipitation 3.33  
Year to date precipitation 16.37  
Snow  
Snow 0.00 in 0.00 in - ()
Month to date snowfall 0.0  
Since 1 July snowfall 20.1  
Snow Depth -    
Sea Level Pressure  
Sea Level Pressure 30.16 in    
Wind  
Wind Speed 2 mph (South)    
Max Wind Speed 8 mph    
Max Gust Speed -    
Visibility 10 miles    
Events      
T = Trace of Precipitation, MM = Missing Value Source: NWS Daily Summary

Daily Weather History Graph

Daily Weather History Graph

Search for Another Location

Airport:

Trip Planner

Search our weather history database for the weather conditions in past years. The results will help you decide how hot, cold, wet, or windy it might be!

Date:

Astronomy

May. 26, 2012 Rise Set
Actual Time 5:45 AM EDT 8:23 PM EDT
Civil Twilight 5:14 AM EDT 8:54 PM EDT
Nautical Twilight 4:35 AM EDT 9:33 PM EDT
Astronomical Twilight 3:52 AM EDT 10:16 PM EDT
Moon 10:43 AM EDT (5/26) No Moon Set
Length of Visible Light 15h 39m
Length of Day
14h 37m
Waxing Crescent, 28% of the Moon is Illuminated
May 26
Waxing Crescent
May 28
First Quarter
Jun 4
Full
Jun 11
Last Quarter
Jun 19
New

Hourly Weather History & Observations

Time (EDT) Temp. Heat Index Dew Point Humidity Pressure Visibility Wind Dir Wind Speed Gust Speed Precip Events Conditions
12:18 AM 64.4 °F - 62.6 °F 94% 30.14 in 10.0 mi Calm Calm - N/A   Clear
1:00 AM 64.4 °F - 62.6 °F 94% 30.15 in 10.0 mi Calm Calm - N/A   Clear
1:21 AM 62.6 °F - 62.6 °F 100% 30.16 in 10.0 mi Calm Calm - N/A   Clear
1:42 AM 62.6 °F - 60.8 °F 94% 30.16 in 10.0 mi Calm Calm - N/A   Clear
2:03 AM 62.6 °F - 60.8 °F 94% 30.16 in 10.0 mi Calm Calm - N/A   Clear
2:24 AM 62.6 °F - 60.8 °F 94% 30.15 in 10.0 mi Calm Calm - N/A   Clear
2:45 AM 62.6 °F - 60.8 °F 94% 30.16 in 10.0 mi Calm Calm - N/A   Clear
3:06 AM 62.6 °F - 60.8 °F 94% 30.15 in 10.0 mi Calm Calm - N/A   Scattered Clouds
3:27 AM 62.6 °F - 60.8 °F 94% 30.16 in 10.0 mi Calm Calm - N/A   Scattered Clouds
3:51 AM 62.6 °F - 60.8 °F 94% 30.16 in 10.0 mi Calm Calm - N/A   Clear
4:12 AM 62.6 °F - 60.8 °F 94% 30.16 in 10.0 mi Calm Calm - N/A   Clear
4:33 AM 62.6 °F - 60.8 °F 94% 30.16 in 10.0 mi Calm Calm - N/A   Clear
4:54 AM 62.6 °F - 60.8 °F 94% 30.16 in 10.0 mi Calm Calm - N/A   Clear
5:15 AM 60.8 °F - 60.8 °F 100% 30.16 in 10.0 mi Calm Calm - N/A   Scattered Clouds
5:36 AM 62.6 °F - 60.8 °F 94% 30.17 in 10.0 mi Calm Calm - N/A   Mostly Cloudy
5:57 AM 62.6 °F - 60.8 °F 94% 30.18 in 10.0 mi Calm Calm - N/A   Scattered Clouds
6:18 AM 62.6 °F - 60.8 °F 94% 30.18 in 10.0 mi Calm Calm - N/A   Clear
6:39 AM 62.6 °F - 60.8 °F 94% 30.18 in 10.0 mi Calm Calm - N/A   Clear
7:03 AM 64.4 °F - 62.6 °F 94% 30.19 in 10.0 mi Calm Calm - N/A   Scattered Clouds
7:24 AM 68.0 °F - 64.4 °F 88% 30.19 in 10.0 mi Calm Calm - N/A   Clear
7:45 AM 68.0 °F - 64.4 °F 88% 30.19 in 10.0 mi Calm Calm - N/A   Scattered Clouds
8:06 AM 69.8 °F - 66.2 °F 88% 30.19 in 10.0 mi Calm Calm - N/A   Scattered Clouds
8:48 AM 73.4 °F - 68.0 °F 83% 30.19 in 10.0 mi WSW 5.8 mph - N/A   Scattered Clouds
9:09 AM 73.4 °F - 68.0 °F 83% 30.18 in 10.0 mi South 4.6 mph - N/A   Clear
9:51 AM 77.0 °F - 68.0 °F 74% 30.18 in 10.0 mi SSW 3.5 mph - N/A   Clear
10:12 AM 77.0 °F - 68.0 °F 74% 30.18 in 10.0 mi SW 3.5 mph - N/A   Scattered Clouds
10:57 AM 80.6 °F 83.2 °F 68.0 °F 65% 30.19 in 10.0 mi WSW 5.8 mph - N/A   Scattered Clouds
11:18 AM 80.6 °F 83.9 °F 69.8 °F 70% 30.18 in 10.0 mi WSW 5.8 mph - N/A   Mostly Cloudy
11:39 AM 80.6 °F 83.9 °F 69.8 °F 70% 30.18 in 10.0 mi SSW 5.8 mph - N/A   Mostly Cloudy
12:00 PM 82.4 °F 85.4 °F 68.0 °F 62% 30.19 in 10.0 mi SSW 3.5 mph - N/A   Scattered Clouds
12:21 PM 82.4 °F 85.4 °F 68.0 °F 62% 30.18 in 10.0 mi SW 5.8 mph - N/A   Scattered Clouds
12:42 PM 82.4 °F 85.4 °F 68.0 °F 62% 30.18 in 10.0 mi Calm Calm - N/A   Mostly Cloudy
1:03 PM 84.2 °F 87.3 °F 68.0 °F 58% 30.18 in 10.0 mi SSE 8.1 mph - N/A   Mostly Cloudy
1:24 PM 84.2 °F 87.3 °F 68.0 °F 58% 30.17 in 10.0 mi SW 3.5 mph - N/A   Scattered Clouds
1:45 PM 84.2 °F 87.3 °F 68.0 °F 58% 30.17 in 10.0 mi SSW 6.9 mph - N/A   Scattered Clouds
2:06 PM 86.0 °F 89.4 °F 68.0 °F 55% 30.16 in 10.0 mi WSW 4.6 mph - N/A   Scattered Clouds
3:12 PM 86.0 °F 89.4 °F 68.0 °F 55% 30.12 in 10.0 mi SW 3.5 mph - N/A   Scattered Clouds
3:33 PM 84.2 °F 87.3 °F 68.0 °F 58% 30.12 in 10.0 mi South 5.8 mph - N/A   Scattered Clouds
3:54 PM 84.2 °F 87.3 °F 68.0 °F 58% 30.11 in 10.0 mi SSW 6.9 mph - N/A   Scattered Clouds
4:15 PM 84.2 °F 88.4 °F 69.8 °F 62% 30.11 in 10.0 mi South 6.9 mph - N/A   Clear
4:36 PM 82.4 °F 85.4 °F 68.0 °F 62% 30.11 in 10.0 mi South 8.1 mph - N/A   Clear
4:57 PM 82.4 °F 85.4 °F 68.0 °F 62% 30.11 in 10.0 mi South 6.9 mph - N/A   Clear
5:18 PM 82.4 °F 85.4 °F 68.0 °F 62% 30.11 in 10.0 mi South 4.6 mph - N/A   Clear
5:39 PM 80.6 °F 83.9 °F 69.8 °F 70% 30.12 in 10.0 mi SSE 3.5 mph - N/A   Clear
6:00 PM 80.6 °F 83.9 °F 69.8 °F 70% 30.12 in 10.0 mi SE 5.8 mph - N/A   Clear
6:21 PM 80.6 °F 83.9 °F 69.8 °F 70% 30.13 in 10.0 mi SE 5.8 mph - N/A   Clear
6:42 PM 78.8 °F - 69.8 °F 74% 30.13 in 10.0 mi SSE 4.6 mph - N/A   Clear
7:06 PM 78.8 °F - 69.8 °F 74% 30.13 in 10.0 mi SSE 4.6 mph - N/A   Clear
7:27 PM 77.0 °F - 68.0 °F 74% 30.13 in 10.0 mi SSE 3.5 mph - N/A   Clear
7:48 PM 77.0 °F - 68.0 °F 74% 30.13 in 10.0 mi SE 3.5 mph - N/A   Clear
8:09 PM 75.2 °F - 68.0 °F 78% 30.15 in 10.0 mi Calm Calm - N/A   Clear
8:30 PM 73.4 °F - 68.0 °F 83% 30.15 in 10.0 mi SE 3.5 mph - N/A   Clear
8:51 PM 71.6 °F - 66.2 °F 83% 30.15 in 10.0 mi SSE 3.5 mph - N/A   Clear
9:12 PM 71.6 °F - 64.4 °F 78% 30.15 in 10.0 mi SSE 4.6 mph - N/A   Clear
9:33 PM 71.6 °F - 64.4 °F 78% 30.13 in 10.0 mi SE 5.8 mph - N/A   Clear
9:54 PM 71.6 °F - 64.4 °F 78% 30.14 in 10.0 mi South 3.5 mph - N/A   Clear
10:15 PM 69.8 °F - 64.4 °F 83% 30.14 in 10.0 mi Calm Calm - N/A   Clear
10:36 PM 69.8 °F - 64.4 °F 83% 30.15 in 10.0 mi Calm Calm - N/A   Clear
11:00 PM 68.0 °F - 64.4 °F 88% 30.16 in 10.0 mi Calm Calm - N/A   Clear
11:21 PM 68.0 °F - 64.4 °F 88% 30.16 in 10.0 mi Calm Calm - N/A   Clear
11:42 PM 68.0 °F - 64.4 °F 88% 30.16 in 10.0 mi Calm Calm - N/A   Clear